Participated 1 time
in 1937
John Braspennincx, Holland
Tour de France 2026 starts from Barcelona, Spain in

Stats and Facts from
Tour de France.

2026   2025   2024   2023  2022  2021  2020  2019   2018  2017   2016   2015  2014  2013   2012   2011  2010   2009   2008   2007   2006   2005   2004   2003   2002   2001   2000   1999   1998   1997  1996   1995   1994   1993   1992  1991   1990   1989   1988   1987   1986   1985   1984   1983  1982  1981   1980   1979  1978  1977   1976  1975  1974  1973   1972   1971   1970  1969   1968   1967   1966   1965  1964  1963   1962   1961   1960   1959   1958   1957  1956   1955   1954   1953   1952  1951  1950  1949   1948  1947  1939   1938   1937   1936   1935   1934   1933  1932   1931   1930  1929   1928   1927   1926  1925  1924  1923   1922   1921   1920   1919  1914   1913   1912   1911   1910  1909   1908   1907   1906  1905  1904   1903 

Tourstats
Sitemap

After stage 21 - 2025:
 16451 starters.
  5463 different riders.
  689 teams.
  2398 stages.
  470 restdays.
  466506.50 km.
  5925 abandoned riders.

Click map for 2016 route.
Facts from Tour de France 2016
  |   Stages.  |   Stage winners.  |   Days in jerseys.  |   Teams.  |   All riders.  |   All riders by age.  |   All riders from.  |  

  |   Rookies.  |   Withdrawls.  |   Average speed.  |   GC.  |   Polka  |   Green  |   White  |   Summits. (In tour)  |   Miscellaneous.  |  

Stage 13 on July 15th. 2016
Pick a stage:  1  2  3  4  5  6  7  8  9  10  11  12  13  14  15  16  17  18  19  20  21  

After stage 13:    Chris Froome    Thomas De Gendt    Peter Sagan    Adam Yates  
  Bourg-Saint-AndéolLa Caverne du Pont-d´Arc | Dist: 37.00km. | Winner: Tom Dumoulin

Podium

Average speed for all riders in stage:  39,113 km./hr.

1
 Tom Dumoulin  Giant-Alpecin00h 50' 15"=44,179  km/h

2
 Chris Froome  Sky Procycling00h 51' 18"+  00:01:03 =43,275  km/h

3
 Nelson Oliveira  Movistar00h 51' 46"+  00:01:31 =42,885  km/h

4  Jérôme Coppel  IAM Cycling00h 51' 50"+  00:01:35 =42,830  km/h

5  Rohan Dennis  BMC00h 51' 56"+  00:01:41 =42,747  km/h

6  Bauke Mollema  Trek-Segafredo00h 52' 09"+  00:01:54 =42,570  km/h

7  Geraint Thomas  Sky Procycling00h 52' 15"+  00:02:00 =42,488  km/h

8  Ion Izagirre  Movistar00h 52' 17"+  00:02:02 =42,461  km/h

9  Tony Martin  Etixx-Quick Step00h 52' 20"+  00:02:05 =42,420  km/h

10  Stephen Cummings  Dimension Data00h 52' 39"+  00:02:24 =42,165  km/h

11  Jan Bárta  Bora-Argon 1800h 52' 46"+  00:02:31 =42,072  km/h

12  Maciej Bodnar  Tinkoff00h 52' 47"+  00:02:32 =42,059  km/h

13  Edvald Boasson Hagen  Dimension Data00h 52' 49"+  00:02:34 =42,032  km/h

14  Stef Clement  IAM Cycling00h 52' 53"+  00:02:38 =41,979  km/h

15  Alejandro Valverde  Movistar00h 53' 03"+  00:02:48 =41,847  km/h

16  Tejay Van Garderen  BMC00h 53' 05"+  00:02:50 =41,821  km/h

17  Luke Durbridge  ORICA BikeExchange00h 53' 16"+  00:03:01 =41,677  km/h

18  Adam Yates  ORICA BikeExchange00h 53' 16"+  00:03:01 =41,677  km/h

19  Ilnur Zakarin  Katusha00h 53' 22"+  00:03:07 =41,599  km/h

20  Nairo Quintana  Movistar00h 53' 23"+  00:03:08 =41,586  km/h

21  Richie Porte  BMC00h 53' 23"+  00:03:08 =41,586  km/h

22  Roman Kreuziger  Tinkoff00h 53' 28"+  00:03:13 =41,521  km/h

23  Fabian Cancellara  Trek-Segafredo00h 53' 30"+  00:03:15 =41,495  km/h

24  Anthony Roux  FDJ00h 53' 38"+  00:03:23 =41,392  km/h

25  Vincenzo Nibali  Astana Pro Team00h 53' 44"+  00:03:29 =41,315  km/h

26  Rubén Plaza  ORICA BikeExchange00h 53' 50"+  00:03:35 =41,238  km/h

27  Alexey Lutsenko  Astana Pro Team00h 53' 56"+  00:03:41 =41,162  km/h

28  Romain Sicard  Direct Energie00h 54' 03"+  00:03:48 =41,073  km/h

29  Sylvain Chavanel  Direct Energie00h 54' 07"+  00:03:52 =41,022  km/h

30  Romain Bardet  AG2R La Mondiale00h 54' 07"+  00:03:52 =41,022  km/h

31  Jérémy Roy  FDJ00h 54' 21"+  00:04:06 =40,846  km/h

32  Thomas De Gendt  Lotto Soudal00h 54' 23"+  00:04:08 =40,821  km/h

33  Dan Martin  Etixx-Quick Step00h 54' 25"+  00:04:10 =40,796  km/h

34  Anthony Delaplace  Fortuneo-Vital Concept00h 54' 32"+  00:04:17 =40,709  km/h

35  Louis Meintjes  Lampre-Merida00h 54' 37"+  00:04:22 =40,647  km/h

36  Alexis Gougeard  AG2R La Mondiale00h 54' 37"+  00:04:22 =40,647  km/h

37  Fabio Aru  Astana Pro Team00h 54' 40"+  00:04:25 =40,610  km/h

38  Andriy Grivko  Astana Pro Team00h 54' 44"+  00:04:29 =40,560  km/h

39  Jarlinson Pantano  IAM Cycling00h 54' 53"+  00:04:38 =40,449  km/h

40  Sébastien Reichenbach  FDJ00h 54' 57"+  00:04:42 =40,400  km/h

41  Sep Vanmarcke  Lotto NL-Jumbo00h 54' 58"+  00:04:43 =40,388  km/h

42  Joaquin Rodriguez  Katusha00h 55' 01"+  00:04:46 =40,351  km/h

43  Georg Preidler  Giant-Alpecin00h 55' 04"+  00:04:49 =40,315  km/h

44  Sergio Henao  Sky Procycling00h 55' 07"+  00:04:52 =40,278  km/h

45  Wilco Kelderman  Lotto NL-Jumbo00h 55' 12"+  00:04:57 =40,217  km/h

46  Warren Barguil  Giant-Alpecin00h 55' 13"+  00:04:58 =40,205  km/h

47  Martin Elmiger  IAM Cycling00h 55' 21"+  00:05:06 =40,108  km/h

48  Jan Polanc  Lampre-Merida00h 55' 25"+  00:05:10 =40,060  km/h

49  Vegard Breen  Fortuneo-Vital Concept00h 55' 26"+  00:05:11 =40,048  km/h

50  Diego Rosa  Astana Pro Team00h 55' 38"+  00:05:23 =39,904  km/h

51  Damiano Caruso  BMC00h 55' 38"+  00:05:23 =39,904  km/h

52  Reto Hollenstein  IAM Cycling00h 55' 41"+  00:05:26 =39,868  km/h

53  Michael Albasini  ORICA BikeExchange00h 55' 42"+  00:05:27 =39,856  km/h

54  Mikel Landa  Sky Procycling00h 55' 45"+  00:05:30 =39,821  km/h

55  Pierre-Luc Périchon  Fortuneo-Vital Concept00h 55' 46"+  00:05:31 =39,809  km/h

56  Emanuel Buchmann  Bora-Argon 1800h 55' 47"+  00:05:32 =39,797  km/h

57  Ramūnas Navardauskas  Cannondale Pro Cycling00h 55' 52"+  00:05:37 =39,737  km/h

58  Timo Roosen  Lotto NL-Jumbo00h 55' 55"+  00:05:40 =39,702  km/h

59  Dylan Van Baarle  Cannondale Pro Cycling00h 55' 56"+  00:05:41 =39,690  km/h

60  Daryl Impey  ORICA BikeExchange00h 55' 58"+  00:05:43 =39,666  km/h

61  Michael Schär  BMC00h 56' 04"+  00:05:49 =39,596  km/h

62  Nicolas Edet  Cofidis – Solutions Crédits00h 56' 05"+  00:05:50 =39,584  km/h

63  Oscar Gatto  Tinkoff00h 56' 05"+  00:05:50 =39,584  km/h

64  Tanel Kangert  Astana Pro Team00h 56' 06"+  00:05:51 =39,572  km/h

65  Oliver Naesen  IAM Cycling00h 56' 07"+  00:05:52 =39,560  km/h

66  Thomas  Voeckler  Direct Energie00h 56' 10"+  00:05:55 =39,525  km/h

67  Florian Vachon  Fortuneo-Vital Concept00h 56' 10"+  00:05:55 =39,525  km/h

68  Pierre Rolland  Cannondale Pro Cycling00h 56' 11"+  00:05:56 =39,513  km/h

69  Michael Valgren  Tinkoff00h 56' 16"+  00:06:01 =39,455  km/h

70  Paul Martens  Lotto NL-Jumbo00h 56' 19"+  00:06:04 =39,420  km/h

71  Brice Feillu  Fortuneo-Vital Concept00h 56' 21"+  00:06:06 =39,397  km/h

72  Imanol Erviti  Movistar00h 56' 23"+  00:06:08 =39,373  km/h

73  Luis León Sánchez  Astana Pro Team00h 56' 23"+  00:06:08 =39,373  km/h

74  Jérôme Cousin  Cofidis – Solutions Crédits00h 56' 28"+  00:06:13 =39,315  km/h

75  Iljo Keisse  Etixx-Quick Step00h 56' 29"+  00:06:14 =39,304  km/h

76  Haimar  Zubeldía  Trek-Segafredo00h 56' 30"+  00:06:15 =39,292  km/h

77  Rui Costa  Lampre-Merida00h 56' 30"+  00:06:15 =39,292  km/h

78  Peter Sagan  Tinkoff00h 56' 32"+  00:06:17 =39,269  km/h

79  Daniel Teklehaimanot  Dimension Data00h 56' 35"+  00:06:20 =39,234  km/h

80  Tony Gallopin  Lotto Soudal00h 56' 36"+  00:06:21 =39,223  km/h

81  Greg Van Avermaet  BMC00h 56' 37"+  00:06:22 =39,211  km/h

82  Arthur Vichot  FDJ00h 56' 38"+  00:06:23 =39,200  km/h

83  Alexis Vuillermoz  AG2R La Mondiale00h 56' 38"+  00:06:23 =39,200  km/h

84  Brent Bookwalter  BMC00h 56' 47"+  00:06:32 =39,096  km/h

85  Luis Angel Mate  Cofidis – Solutions Crédits00h 56' 47"+  00:06:32 =39,096  km/h

86  Paolo Tiralongo  Astana Pro Team00h 56' 48"+  00:06:33 =39,085  km/h

87  Ángel Vicioso  Katusha00h 56' 49"+  00:06:34 =39,073  km/h

88  Gregory Henderson  Lotto Soudal00h 56' 49"+  00:06:34 =39,073  km/h

89  Jan Bakelants  AG2R La Mondiale00h 56' 49"+  00:06:34 =39,073  km/h

90  Fabrice Jeandesboz  Direct Energie00h 56' 55"+  00:06:40 =39,004  km/h

91  Jasper Stuyven  Trek-Segafredo00h 56' 56"+  00:06:41 =38,993  km/h

92  Ben Gastauer  AG2R La Mondiale00h 56' 58"+  00:06:43 =38,970  km/h

93  Domenico Pozzovivo  AG2R La Mondiale00h 57' 02"+  00:06:47 =38,925  km/h

94  Mikel Nieve  Sky Procycling00h 57' 03"+  00:06:48 =38,913  km/h

95  Wout Poels  Sky Procycling00h 57' 04"+  00:06:49 =38,902  km/h

96  Kristijan Ðurasek  Lampre-Merida00h 57' 04"+  00:06:49 =38,902  km/h

97  Steve Morabito  FDJ00h 57' 06"+  00:06:51 =38,879  km/h

98  William  Bonnet  FDJ00h 57' 12"+  00:06:57 =38,811  km/h

99  Adrien Petit  Direct Energie00h 57' 15"+  00:07:00 =38,777  km/h

100  Jürgen Roelandts  Lotto Soudal00h 57' 20"+  00:07:05 =38,721  km/h

101  Fabio Sabatini  Etixx-Quick Step00h 57' 22"+  00:07:07 =38,698  km/h

102  Bartosz Huzarski  Bora-Argon 1800h 57' 24"+  00:07:09 =38,676  km/h

103  Samuel Dumoulin  AG2R La Mondiale00h 57' 26"+  00:07:11 =38,654  km/h

104  Fränk Schleck  Trek-Segafredo00h 57' 26"+  00:07:11 =38,654  km/h

105  Matteo Tosatto  Tinkoff00h 57' 26"+  00:07:11 =38,654  km/h

106  Julian Alaphilippe  Etixx-Quick Step00h 57' 30"+  00:07:15 =38,609  km/h

107  Gorka Izagirre  Movistar00h 57' 30"+  00:07:15 =38,609  km/h

108  Antoine Duchesne  Direct Energie00h 57' 34"+  00:07:19 =38,564  km/h

109  Bert-Jan Lindeman  Lotto NL-Jumbo00h 57' 35"+  00:07:20 =38,553  km/h

110  Andreas Schillinger  Bora-Argon 1800h 57' 35"+  00:07:20 =38,553  km/h

111  Peter Stetina  Trek-Segafredo00h 57' 36"+  00:07:21 =38,542  km/h

112  Mikaël Cherel  AG2R La Mondiale00h 57' 37"+  00:07:22 =38,531  km/h

113  Marcel Sieberg  Lotto Soudal00h 57' 37"+  00:07:22 =38,531  km/h

114  Robert Wagner  Lotto NL-Jumbo00h 57' 40"+  00:07:25 =38,497  km/h

115  Eduardo Sepulveda  Fortuneo-Vital Concept00h 57' 42"+  00:07:27 =38,475  km/h

116  Simon Geschke  Giant-Alpecin00h 57' 42"+  00:07:27 =38,475  km/h

117  Jakob Fuglsang  Astana Pro Team00h 57' 43"+  00:07:28 =38,464  km/h

118  Sondre Holst Enger  IAM Cycling00h 57' 45"+  00:07:30 =38,442  km/h

119  Mathew Hayman  ORICA BikeExchange00h 57' 48"+  00:07:33 =38,408  km/h

120  Vasil Kiryienka  Sky Procycling00h 57' 48"+  00:07:33 =38,408  km/h

121  Rafał Majka  Tinkoff00h 57' 48"+  00:07:33 =38,408  km/h

122  Markel Irizar  Trek-Segafredo00h 57' 54"+  00:07:39 =38,342  km/h

123  Tom-Jelte Slagter  Cannondale Pro Cycling00h 57' 56"+  00:07:41 =38,320  km/h

124  Arnold Jeannesson  Cofidis – Solutions Crédits00h 57' 56"+  00:07:41 =38,320  km/h

125  Reinardt Janse Van Rensburg  Dimension Data00h 58' 02"+  00:07:47 =38,254  km/h

126  Natnael Berhane  Dimension Data00h 58' 03"+  00:07:48 =38,243  km/h

127  Winner Anacona  Movistar00h 58' 03"+  00:07:48 =38,243  km/h

128  Jens Debusschere  Lotto Soudal00h 58' 05"+  00:07:50 =38,221  km/h

129  Daniel Moreno  Movistar00h 58' 05"+  00:07:50 =38,221  km/h

130  Dylan Groenewegen  Lotto NL-Jumbo00h 58' 06"+  00:07:51 =38,210  km/h

131  Serge Pauwels  Dimension Data00h 58' 07"+  00:07:52 =38,199  km/h

132  Tsgabu Grmay  Lampre-Merida00h 58' 07"+  00:07:52 =38,199  km/h

133  Christophe Laporte  Cofidis – Solutions Crédits00h 58' 09"+  00:07:54 =38,177  km/h

134  Michael Matthews  ORICA BikeExchange00h 58' 11"+  00:07:56 =38,155  km/h

135  Ian Stannard  Sky Procycling00h 58' 13"+  00:07:58 =38,133  km/h

136  Alberto Losada  Katusha00h 58' 13"+  00:07:58 =38,133  km/h

137  Bryan Coquard  Direct Energie00h 58' 16"+  00:08:01 =38,101  km/h

138  Laurens Ten Dam  Giant-Alpecin00h 58' 22"+  00:08:07 =38,035  km/h

139  Cyril Gautier  AG2R La Mondiale00h 58' 23"+  00:08:08 =38,025  km/h

140  André Greipel  Lotto Soudal00h 58' 26"+  00:08:11 =37,992  km/h

141  Daniel Navarro  Cofidis – Solutions Crédits00h 58' 29"+  00:08:14 =37,960  km/h

142  Marcus Burghardt  BMC00h 58' 31"+  00:08:16 =37,938  km/h

143  Albert Timmer  Giant-Alpecin00h 58' 33"+  00:08:18 =37,916  km/h

144  Paul Voss  Bora-Argon 1800h 58' 36"+  00:08:21 =37,884  km/h

145  Lawson Craddock  Cannondale Pro Cycling00h 58' 38"+  00:08:23 =37,862  km/h

146  Ramon Sinkeldam  Giant-Alpecin00h 58' 41"+  00:08:26 =37,830  km/h

147  Jesus Herrada  Movistar00h 58' 41"+  00:08:26 =37,830  km/h

148  Alex Howes  Cannondale Pro Cycling00h 58' 46"+  00:08:31 =37,777  km/h

149  Alexander Kristoff  Katusha00h 58' 46"+  00:08:31 =37,777  km/h

150  Marcel Kittel  Etixx-Quick Step00h 58' 46"+  00:08:31 =37,777  km/h

151  Maarten Wynants  Lotto NL-Jumbo00h 58' 47"+  00:08:32 =37,766  km/h

152  John Degenkolb  Giant-Alpecin00h 58' 49"+  00:08:34 =37,744  km/h

153  Robert Kišerlovski  Tinkoff00h 58' 51"+  00:08:36 =37,723  km/h

154  Luke Rowe  Sky Procycling00h 58' 51"+  00:08:36 =37,723  km/h

155  Luka Pibernik  Lampre-Merida00h 58' 52"+  00:08:37 =37,712  km/h

156  Geoffrey Soupe  Cofidis – Solutions Crédits00h 58' 52"+  00:08:37 =37,712  km/h

157  Amaël Moinard  BMC00h 58' 53"+  00:08:38 =37,702  km/h

158  Petr Vakoč  Etixx-Quick Step00h 58' 53"+  00:08:38 =37,702  km/h

159  Patrick Konrad  Bora-Argon 1800h 58' 54"+  00:08:39 =37,691  km/h

160  Sam Bennett  Bora-Argon 1800h 58' 55"+  00:08:40 =37,680  km/h

161  Maximiliano Richeze  Etixx-Quick Step00h 58' 57"+  00:08:42 =37,659  km/h

162  Jacopo Guarnieri  Katusha00h 58' 58"+  00:08:43 =37,648  km/h

163  Adam Hansen  Lotto Soudal00h 59' 05"+  00:08:50 =37,574  km/h

164  Matti Breschel  Cannondale Pro Cycling00h 59' 07"+  00:08:52 =37,553  km/h

165  Christopher Juul Jensen  ORICA BikeExchange00h 59' 07"+  00:08:52 =37,553  km/h

166  Gregory Rast  Trek-Segafredo00h 59' 10"+  00:08:55 =37,521  km/h

167  Yukiya  Arashiro  Lampre-Merida00h 59' 14"+  00:08:59 =37,479  km/h

168  Julien Vermote  Etixx-Quick Step00h 59' 14"+  00:08:59 =37,479  km/h

169  Mathias Frank  IAM Cycling00h 59' 19"+  00:09:04 =37,426  km/h

170  Shane Archbold  Bora-Argon 1800h 59' 20"+  00:09:05 =37,416  km/h

171  Yohann Gène  Direct Energie00h 59' 29"+  00:09:14 =37,321  km/h

172  George Bennett  Lotto NL-Jumbo00h 59' 32"+  00:09:17 =37,290  km/h

173  Roy Curvers  Giant-Alpecin00h 59' 32"+  00:09:17 =37,290  km/h

174  Davide Cimolai  Lampre-Merida00h 59' 35"+  00:09:20 =37,259  km/h

175  Lars Bak  Lotto Soudal00h 59' 43"+  00:09:28 =37,176  km/h

176  Kristjan Koren  Cannondale Pro Cycling00h 59' 53"+  00:09:38 =37,072  km/h

177  Cesare Benedetti  Bora-Argon 1800h 59' 55"+  00:09:40 =37,051  km/h

178  Bernhard Eisel  Dimension Data00h 59' 59"+  00:09:44 =37,010  km/h

179  Daniel McLay  Fortuneo-Vital Concept01h 00' 05"+  00:09:50 =36,949  km/h

180  Mark Cavendish  Dimension Data01h 00' 22"+  00:10:07 =36,775  km/h

181  Matteo Bono  Lampre-Merida01h 00' 23"+  00:10:08 =36,765  km/h

182  Cyril Lemoine  Cofidis – Solutions Crédits01h 00' 33"+  00:10:18 =36,664  km/h

183  Leigh Howard  IAM Cycling01h 00' 40"+  00:10:25 =36,593  km/h

184  Marco Haller  Katusha01h 00' 52"+  00:10:37 =36,473  km/h

185  Borut Božič  Cofidis – Solutions Crédits01h 00' 57"+  00:10:42 =36,423  km/h

186  Armindo Fonseca  Fortuneo-Vital Concept01h 01' 16"+  00:11:01 =36,235  km/h

187  Chris Anker Sørensen  Fortuneo-Vital Concept01h 01' 33"+  00:11:18 =36,068  km/h


Withdrawls: 3
 RiderTeamReason
121   Thibaut Pinot FDJDid not start
201   Simon Gerrans ORICA BikeExchangeDid not start
68   Edward Theuns Trek-SegafredoDid not finish
Todays birthdays.

1888 • Giuseppe Contesini
1911 • Edmond Pages
1935 • Eddy Pauwels
1940 • Julien Haelterman
1958 • Luc Colijn
1962 • Jean-François Bernard
1984 • Yann Huguet
1993 • Owain Doull

 

Optimized for Chrome - Edge
and Opera browsers.